Regional Weather Roundup
Issued by NWS

Home | Current Version | Previous Version | Text Only | Print | Product List | Glossary On
Versions: 1 2 3 4 5 6 7 8 9 10 11 12 13 14 15 16 17 18 19 20 21 22 23 24 25 26 27 28 29 30 31 32 33 34 35 36 37 38 39 40 41 42 43 44 45 46 47 48 49 50
037
ASUS43 KOAX 202310
RWRNE

WEATHER ROUNDUP FOR NEBRASKA
NATIONAL WEATHER SERVICE OMAHA NE
500 PM CST FRI JAN 20 2017

NOTES: SATELLITE DATA IS BEING USED TO AUGMENT CLOUD COVER ABOVE
       12000 FEET.
       "FAIR" INDICATES FEW OR NO CLOUDS BELOW 12,000 FEET WITH NO
       SIGNIFICANT WEATHER AND/OR OBSTRUCTIONS TO VISIBILITY.

  * THESE STATIONS DO NOT REPORT WEATHER SUCH AS RAIN...SNOW OR FOG.

NEZ001>004-019>022-054>056-210000-
NEBRASKA PANHANDLE

CITY           SKY/WX    TMP DP  RH WIND       PRES   REMARKS
SCOTTSBLUFF    LGT RAIN  38  32  79 W9        29.39R WCI  31
ALLIANCE       CLOUDY    38  30  73 NW8       29.35R WCI  32
CHADRON        CLOUDY    36  31  82 W8        29.36R WCI  30
KIMBALL        LGT SNOW  35  32  90 NW17G26   29.39R WCI  24
SIDNEY         CLOUDY    38  30  73 NW18      29.38R WCI  28
$$

NEZ057>060-069>072-079>082-210000-
SOUTHWEST NEBRASKA

CITY           SKY/WX    TMP DP  RH WIND       PRES   REMARKS
NORTH PLATTE   CLOUDY    39  33  79 W3        29.36R
IMPERIAL       CLOUDY    42  34  73 W3        29.36R
LEXINGTON      CLOUDY    41  37  85 CALM      29.35F
MCCOOK         CLOUDY    39  36  89 W5        29.37R
OGALLALA       CLOUDY    41  33  72 NW5       29.36R
$$

NEZ005>010-023>029-035>040-094-210000-
NORTH CENTRAL NEBRASKA

CITY           SKY/WX    TMP DP  RH WIND       PRES   REMARKS
VALENTINE      PTCLDY    39  28  64 W6        29.33S WCI  35
AINSWORTH      PTCLDY    39  32  75 SW6       29.33S
BROKEN BOW     CLOUDY    40  37  89 S6        29.35S
O`NEILL        CLOUDY    43  39  88 S10       29.37S
ORD            CLOUDY    40  38  93 S3        29.37S FOG
THEDFORD       CLOUDY    39  33  81 SW6       29.35S WCI  34
$$

NEZ041-046>049-061>064-073>077-083>087-210000-
SOUTH CENTRAL NEBRASKA

CITY           SKY/WX    TMP DP  RH WIND       PRES   REMARKS
GRAND ISLAND   CLOUDY    40  40 100 SE3       29.39F FOG
AURORA         DRZL/FOG  40  40 100 SE6       29.39F VSB 1/2
HASTINGS       FOG       41  40  96 SE5       29.39F VSB<1/4
HEBRON         FOG       43  43 100 CALM      29.40S VSB 3/4
HOLDREGE       CLOUDY    39  38  98 CALM      29.36F
KEARNEY *      CLOUDY    39  -9  12 CALM      29.38F
YORK           MIX PCPN  41  41 100 SE6       29.40F VSB 1/2
$$

NEZ011>018-030>034-042>045-210000-
NORTHEAST NEBRASKA

CITY           SKY/WX    TMP DP  RH WIND       PRES   REMARKS
NORFOLK        CLOUDY    40  39  97 SE12      29.41R WCI  33
ALBION         RAIN     N/A N/A N/A SE6       29.40S
BLAIR          DRIZZLE   41  41  98 E6        29.44S
FREMONT        CLOUDY    42  42 100 E5        29.45S FOG
TEKAMAH        CLOUDY    41  39  93 SE8       29.46R
WAYNE          CLOUDY    41  40  99 SE7       29.43S FOG
$$

NEZ050>053-065>068-078-088>093-210000-
SOUTHEAST NEBRASKA

CITY           SKY/WX    TMP DP  RH WIND       PRES   REMARKS
LINCOLN        FOG       43  43 100 E8        29.44S VSB 3/4
OMAHA EPPLEY   LGT RAIN  42  39  89 SE3       29.46R FOG
BEATRICE       FOG       44  44 100 SE6       29.42S VSB 1/4
FALLS CITY     CLOUDY    45  45 100 E7        29.43F FOG
NEBRASKA CITY  FOG       42  42 100 SE7       29.44S VSB 1/2
PLATTSMOUTH    FOG       42  40  93 E7        29.45S VSB 3/4
$$

NEZ044-045-051>053-067-210000-
OMAHA AREA

CITY           SKY/WX    TMP DP  RH WIND       PRES   REMARKS
OMAHA EPPLEY   LGT RAIN  42  39  89 SE3       29.46R FOG
BLAIR          DRIZZLE   41  41  98 E6        29.44S
FREMONT        CLOUDY    42  42 100 E5        29.45S FOG
MILLARD        DRIZZLE   44  43  95 E3        29.45S
OFFUTT AFB     CLOUDY    42  42 100 E6        29.45S
PLATTSMOUTH    FOG       42  40  93 E7        29.45S VSB 3/4
WAHOO          FOG       40  40  98 E3        29.43F VSB 3/4
$$




USA.gov is the U.S. government's official web portal to all federal, state and local government web resources and services.